Chemical Pioneer — KAFO — position and weather

sailwx.info

Track history (hours):
 
Tides and Currents Weather Stations Pressure Air Temp Water Temp Dewpoint Dewpoint Depression Visibility Wind Speed Wind Dir Waves Ship Positions

Chemical Pioneer

Owner: US Shipping Corp, Edison, NJ. More information available from US FCC via Universal Licensing System and Coast Guard Vessel Documentation Center.

Last reported at 2014-Nov-26 01:34 UTC. Time now 2014-Nov-26 01:39 UTC.
Position N 29°27' W 094°51'.

Type: Tanker. MMSI: 366032000.

Date/timePositionNaut miles runAvg speedWind from/ knotsBaromVisibWave heightAir tempDewpointWater temp
2014-Nov-26 01:34N 29°27' W 094°51'1212.4
2014-Nov-26 00:34N 29°38' W 094°58'9 9.0
2014-Nov-25 23:34N 29°45' W 095°04'2 0.3
2014-Nov-25 17:04N 29°45' W 095°06'0 0.0
2014-Nov-25 16:31N 29°45' W 095°06'0 0.0
2014-Nov-25 14:19N 29°45' W 095°06'0 0.0
2014-Nov-25 13:31N 29°45' W 095°06'0 0.0
2014-Nov-24 22:10N 29°45' W 095°06'1 0.9
2014-Nov-24 21:33N 29°45' W 095°06'6 6.3
2014-Nov-24 20:33N 29°42' W 094°60'1111.2
2014-Nov-24 19:33N 29°32' W 094°54'1412.8
2014-Nov-24 18:30N 29°21' W 094°45'9511.3
2014-Nov-24 10:04N 28°27' W 093°15'610.5
2014-Nov-24 09:27N 28°24' W 093°09'910.4
2014-Nov-24 08:33N 28°18' W 093°00'1010.2
2014-Nov-24 07:33N 28°12' W 092°51'  
2014-Nov-21 10:32N 25°04' W 080°10'1412.6
2014-Nov-21 09:26N 25°17' W 080°04'1312.5
2014-Nov-21 08:26N 25°29' W 080°01'1112.1
2014-Nov-21 07:33N 25°39' W 080°01'1211.7
2014-Nov-21 06:33N 25°51' W 080°00'1211.8
2014-Nov-21 05:34N 26°03' W 079°59'1211.6
2014-Nov-21 04:34N 26°14' W 079°58'1211.7
2014-Nov-21 03:33N 26°26' W 079°57'1212.2
2014-Nov-21 02:34N 26°38' W 079°56'1211.7
2014-Nov-21 01:34N 26°50' W 079°55'1211.8
2014-Nov-21 00:33N 27°02' W 079°55'  
2014-Nov-17 05:16N 34°13' W 076°21'2613.7
2014-Nov-17 03:21N 34°32' W 075°58'28113.5
2014-Nov-16 06:30N 39°11' W 075°16'1414.7
2014-Nov-16 05:33N 39°22' W 075°28'1313.3
2014-Nov-16 04:33N 39°35' W 075°33'1312.8
2014-Nov-16 03:33N 39°47' W 075°28'1312.8
2014-Nov-16 02:33N 39°52' W 075°13'  
Track history (hours):
 
Tides and Currents Weather Stations Pressure Air Temp Water Temp Dewpoint Dewpoint Depression Visibility Wind Speed Wind Dir Waves Ship Positions

Chemical Pioneer

Owner: US Shipping Corp, Edison, NJ. More information available from US FCC via Universal Licensing System and Coast Guard Vessel Documentation Center.

Last reported at 2014-Nov-26 01:34 UTC. Time now 2014-Nov-26 01:39 UTC.
Position N 29°27' W 094°51'.

Type: Tanker. MMSI: 366032000.

Date/timePositionNaut miles runAvg speedWind from/ knotsBaromVisibWave heightAir tempDewpointWater temp
2014-Nov-26 01:34N 29°27' W 094°51'1212.4
2014-Nov-26 00:34N 29°38' W 094°58'9 9.0
2014-Nov-25 23:34N 29°45' W 095°04'2 0.3
2014-Nov-25 17:04N 29°45' W 095°06'0 0.0
2014-Nov-25 16:31N 29°45' W 095°06'0 0.0
2014-Nov-25 14:19N 29°45' W 095°06'0 0.0
2014-Nov-25 13:31N 29°45' W 095°06'0 0.0
2014-Nov-24 22:10N 29°45' W 095°06'1 0.9
2014-Nov-24 21:33N 29°45' W 095°06'6 6.3
2014-Nov-24 20:33N 29°42' W 094°60'1111.2
2014-Nov-24 19:33N 29°32' W 094°54'1412.8
2014-Nov-24 18:30N 29°21' W 094°45'9511.3
2014-Nov-24 10:04N 28°27' W 093°15'610.5
2014-Nov-24 09:27N 28°24' W 093°09'910.4
2014-Nov-24 08:33N 28°18' W 093°00'1010.2
2014-Nov-24 07:33N 28°12' W 092°51'  
2014-Nov-21 10:32N 25°04' W 080°10'1412.6
2014-Nov-21 09:26N 25°17' W 080°04'1312.5
2014-Nov-21 08:26N 25°29' W 080°01'1112.1
2014-Nov-21 07:33N 25°39' W 080°01'1211.7
2014-Nov-21 06:33N 25°51' W 080°00'1211.8
2014-Nov-21 05:34N 26°03' W 079°59'1211.6
2014-Nov-21 04:34N 26°14' W 079°58'1211.7
2014-Nov-21 03:33N 26°26' W 079°57'1212.2
2014-Nov-21 02:34N 26°38' W 079°56'1211.7
2014-Nov-21 01:34N 26°50' W 079°55'1211.8
2014-Nov-21 00:33N 27°02' W 079°55'  
2014-Nov-17 05:16N 34°13' W 076°21'2613.7
2014-Nov-17 03:21N 34°32' W 075°58'28113.5
2014-Nov-16 06:30N 39°11' W 075°16'1414.7
2014-Nov-16 05:33N 39°22' W 075°28'1313.3
2014-Nov-16 04:33N 39°35' W 075°33'1312.8
2014-Nov-16 03:33N 39°47' W 075°28'1312.8
2014-Nov-16 02:33N 39°52' W 075°13'  

Dump ship's entire track history